{"data":{"norad_id":62258,"intl_designator":"2024-233C","name":"PROBA-3 OSC","alt_names":[],"object_type":"PAYLOAD","status":"ACTIVE","operator":null,"country":"ESA","launch_date":"2024-12-05","launch_site_code":"SRILR","launch_vehicle":null,"mission":null,"orbit_class":"UNKNOWN","rcs_meters":null,"size_class":null,"mass_kg":null,"dimensions":null,"purposes":[],"wikipedia_slug":null,"has_3d_model":false,"image_url":null,"decayed_at":null,"tle_current":{"epoch":"2026-05-23T17:39:45.369792Z","epoch_age_seconds":194731,"freshness":"STALE","line1":"1 62258U 24233C   26143.73594178 -.00000097  00000+0  57230-2 0  9992","line2":"2 62258  59.6991  99.5464 8005505 204.8721  70.7768  1.22073745  6516","mean_motion":1.22073745,"eccentricity":0.8005505,"inclination_deg":59.6991,"raan_deg":99.5464,"arg_perigee_deg":204.8721,"mean_anomaly_deg":70.7768,"bstar":0.005723,"rev_number":651,"period_min":1179.6148303634,"perigee_km":997.84669150812,"apogee_km":60209.300540514,"semimajor_km":36981.710616011,"source":"CELESTRAK","updated_at":"2026-05-25T13:38:02.870415Z"}}}